#timestamp,LO_Frequency,Hit,StdDev 
1633039215.8,286047005.7,N
1633039235.6,286047005.3,N
1633039255.5,286047005.7,N
1633039275.3,286047005.2,N
1633039295.1,286047007.6,N
1633039315.9,286047007.4,N
1633039335.7,286047007.6,N
1633039355.6,286047006.5,N
1633039375.4,286047008.8,N
1633039395.2,286047006.9,N
1633039415.1,286047007.3,N
1633039416.0,286047007.3,N
1633039435.8,286047005.3,N
1633039455.6,286047004.9,N
1633039475.5,286047005.3,N
1633039495.3,286047004.8,N
1633039515.2,286047004.9,N
1633039535.9,286047007.6,Y
1633039555.7,286047000.4,P
1633039575.6,286047000.6,N
1633039595.4,286047000.5,N
1633039615.2,286047000.3,N
1633039635.1,286047000.9,N
1633039636.0,286047000.9,N
1633039655.8,286047001.1,N
1633039675.7,286046999.3,N
1633039695.5,286046999.3,N
1633039715.3,286046998.9,N
1633039735.2,286046999.1,N
1633039755.0,286046999.4,N
1633039755.9,286046999.4,N
1633039775.8,286046998.1,N
1633039795.6,286047000.4,N
1633039815.4,286047001.1,N
1633039835.3,286046998.1,N
1633039855.1,286046999.0,N
1633039875.9,286046998.4,N
1633039895.7,286046996.5,N
1633039915.5,286046999.4,N
1633039935.4,286046998.1,N
1633039955.2,286046999.5,N
1633039975.0,286046999.3,N
1633039975.9,286046999.3,N
1633039995.8,286046998.9,N
1633040015.6,286046998.8,N
1633040035.5,286046998.8,N
1633040055.3,286046998.5,N
1633040075.1,286046998.4,N
1633040095.9,286047000.5,N
1633040115.7,286047000.8,N
1633040135.6,286046998.2,N
1633040155.4,286047001.0,N
1633040175.2,286046999.4,N
1633040195.1,286046996.5,Y
1633040196.0,286046996.5,P
1633040215.8,286047000.8,N
1633040235.7,286047000.6,N
1633040255.5,286047001.1,N
1633040275.3,286046998.7,N
1633040295.2,286047001.0,N
1633040315.0,286047000.8,N
1633040315.9,286047000.8,N
1633040335.7,286047000.6,N
1633040355.6,286046998.6,N
1633040375.4,286047001.2,N
1633040395.3,286047000.9,N
1633040415.1,286047000.7,N
1633040435.8,286046998.2,N
1633040455.7,286047000.8,N
1633040475.5,286046999.2,N
1633040495.4,286046996.5,N
1633040515.2,286046996.5,N
1633040535.0,286046997.2,N
1633040535.9,286046997.2,N
1633040555.8,286046997.8,N
1633040575.6,286046994.9,Y
1633040595.5,286046999.1,P
1633040615.3,286046998.7,P
1633040635.1,286046998.1,P
1633040655.9,286046998.3,Y
1633040675.7,286046998.1,P
1633040695.5,286046999.0,N
1633040715.4,286047001.2,P
1633040735.2,286047000.9,N
1633040755.1,286047001.1,N
1633040756.0,286047001.1,N
1633040775.8,286047001.1,N
1633040795.6,286046998.2,N
1633040815.5,286046998.7,N
1633040835.3,286046998.1,N
1633040855.2,286046998.7,N
1633040875.9,286046998.7,N
1633040895.7,286046998.8,N
1633040915.6,286046998.8,N
1633040935.4,286046999.3,N
1633040955.2,286046998.6,N
1633040975.1,286046998.4,N
1633040976.0,286046998.4,N
1633040995.8,286046998.4,N
1633041015.7,286046998.9,N
1633041035.5,286046998.8,N
1633041055.3,286047000.8,N
1633041075.2,286047000.7,N
1633041095.0,286047001.2,N
1633041095.9,286047001.2,N
1633041115.8,286046998.1,N
1633041135.6,286046999.3,N
1633041155.4,286046998.6,N
1633041175.3,286046998.2,N
1633041195.1,286046999.4,N
1633041215.8,286046996.9,N
1633041235.7,286046997.2,N
1633041255.5,286046998.9,N
1633041275.4,286046996.5,N
1633041295.2,286046996.9,N
1633041315.0,286046997.0,N
1633041315.9,286046997.0,N
1633041335.8,286046998.8,N
1633041355.6,286046999.5,N
1633041375.4,286046996.5,N
1633041395.3,286046998.8,N
1633041415.1,286046998.8,N
1633041435.9,286046999.0,N
1633041455.7,286046999.5,N
1633041475.5,286046998.0,N
1633041495.4,286046993.7,Y
1633041515.2,286046995.4,P
1633041535.1,286046995.1,P
1633041536.0,286046995.1,P
1633041555.8,286046995.2,Y
1633041575.6,286047000.8,P
1633041595.5,286047000.3,N
1633041615.3,286046998.2,N
1633041635.1,286046998.9,N
1633041655.9,286046996.5,N
1633041675.7,286046996.9,N
1633041695.6,286047001.2,N
1633041715.4,286046998.6,N
1633041735.2,286046998.7,N
1633041755.1,286046998.6,N
1633041756.0,286046998.6,N
1633041775.8,286047000.4,N
1633041795.7,286047002.5,N
1633041815.5,286047000.1,N
1633041835.3,286046998.6,N
1633041855.2,286047000.0,N
1633041875.0,286047000.0,N
1633041875.9,286047000.0,N
1633041895.7,286046999.8,N
1633041915.6,286047002.2,N
1633041935.4,286046999.8,N
1633041955.3,286047001.6,N
1633041975.1,286047001.6,N
1633041995.8,286047001.8,N
1633042015.7,286047002.0,N
1633042035.5,286047004.3,N
1633042055.4,286047003.5,N
1633042075.2,286047004.1,N
1633042095.0,286047003.1,N
1633042095.9,286047003.1,N
1633042115.3,286047003.1,N
1633042135.1,286047003.2,N
1633042155.8,286047003.2,N
1633042175.7,286047005.7,N
1633042195.5,286047003.4,N
1633042215.4,286047003.6,N
1633042235.2,286047003.7,N
1633042255.0,286047003.6,N
1633042255.9,286047003.6,N
1633042275.8,286047003.2,N
1633042295.6,286047005.5,Y
1633042315.5,286047001.9,P
1633042335.3,286047002.8,P
1633042355.1,286047002.0,P
1633042375.9,286047002.2,Y
1633042395.7,286046998.5,P
1633042415.5,286047001.2,N
1633042435.4,286047000.6,N
1633042455.2,286047001.1,N
1633042475.1,286046998.7,N
1633042476.0,286046998.7,N
1633042495.8,286047000.1,N
1633042515.6,286046999.9,N
1633042535.5,286047000.0,N
1633042555.3,286046998.2,N
1633042575.1,286046999.9,N
1633042595.9,286047002.4,N
1633042615.7,286047002.7,N
1633042635.6,286046999.7,N
1633042655.4,286047000.7,N
1633042675.2,286046998.3,N
1633042695.1,286046998.6,N
1633042696.0,286046998.6,N
1633042715.8,286047000.0,N
1633042735.7,286047000.3,N
1633042755.5,286047001.2,N
1633042775.3,286046999.8,N
1633042795.2,286047002.7,N
